C/2023 F3 ( ATLAS )

Japanese version
Home page
Updated on May 21, 2024

---------------------------------------------------------------------

* Profile

Discovery Date March 28, 2023
Magnitude 18.8 mag
Discoverer Asteroid Terrestrial-Impact Last Alert System (ATLAS) search program

* Pictures

* Orbital Elements

Epoch 2024 Mar. 31.0 TT = JDT 2460400.5
T 2025 Feb. 2.72228 TT                                  Rudenko
q   5.1906036            (2000.0)            P               Q
z  -0.0008299      Peri.  265.53449     -0.75305440     -0.39284846
 +/-0.0000047      Node   109.45241     -0.09779554     +0.86010742
e   1.0043074      Incl.  145.96095     -0.65064976     +0.32540025
>From 178 observations 2023 Mar. 28-2024 Mar. 19, mean residual 0".5.

* Finding Charts

* Magnitudes Graph

        m1 = 5.5 + 5 log d + 10.0 log r

---------------------------------------------------------------------

The orbital elements are published on M.P.E.C. 2024-F34.
The charts are made with StellaNavigator Ver.11 (AstroArts).
The magnitudes graphs are made with Comet for Windows.

---------------------------------------------------------------------

Copyright(C) Seiichi Yoshida (comet@aerith.net). All rights reserved.